FW8685 Weather Reports


time (UTC)temp
C
wind
direction
speed
KPH
gust
KPH
rain 1hr
cm
rain 24hr
cm
rain mn
cm
humidity
%
barometer
mb
20260831103524 23 123 3.2 9.7 0.00 0.00 0.00 66 1011.8
20260831103050 23 105 4.8 9.7 0.00 0.00 0.00 66 1011.7
20260831102524 23 111 4.8 6.4 0.00 0.00 0.00 65 1011.7
20260831102025 23 109 3.2 6.4 0.00 0.00 0.00 65 1011.8
20260831101546 23 105 3.2 6.4 0.00 0.00 0.00 65 1011.7
20260831101023 23 107 3.2 6.4 0.00 0.00 0.00 65 1011.7
20260831100525 23 108 3.2 6.4 0.00 0.00 0.00 64 1011.7
20260831100100 23 106 4.8 6.4 0.00 0.00 0.00 64 1011.7
20260831095525 24 109 4.8 6.4 0.00 0.00 0.00 63 1011.4
20260831095026 24 115 4.8 9.7 0.00 0.00 0.00 63 1011.3
20260831094548 24 116 4.8 9.7 0.00 0.00 0.00 62 1011.3
20260831094024 24 117 4.8 9.7 0.00 0.00 0.00 62 1011.5
20260831093525 25 108 6.4 9.7 0.00 0.00 0.00 62 1011.3
20260831093056 25 112 4.8 9.7 0.00 0.00 0.00 61 1011.2
20260831092523 25 115 4.8 8.0 0.00 0.00 0.00 61 1011.2
20260831092022 25 145 4.8 11.3 0.00 0.00 0.00 61 1011.3
20260831091541 25 138 4.8 11.3 0.00 0.00 0.00 60 1011.1
20260831091029 25 122 3.2 11.3 0.00 0.00 0.00 60 1011.0
20260831090523 25 126 4.8 12.9 0.00 0.00 0.00 60 1011.0
20260831090056 25 125 4.8 12.9 0.00 0.00 0.00 60 1011.2
20260831085525 25 126 6.4 12.9 0.00 0.00 0.00 59 1011.0
20260831085024 25 110 6.4 12.9 0.00 0.00 0.00 59 1010.8
20260831084545 25 130 4.8 14.5 0.00 0.00 0.00 59 1010.8
20260831084025 25 122 8.0 14.5 0.00 0.00 0.00 59 1010.9
20260831083525 26 135 8.0 14.5 0.00 0.00 0.00 59 1010.7
20260831083102 26 149 8.0 14.5 0.00 0.00 0.00 58 1010.7
20260831082525 26 108 8.0 16.1 0.00 0.00 0.00 58 1010.5
20260831082025 26 127 8.0 16.1 0.00 0.00 0.00 58 1010.7
20260831081555 26 134 8.0 14.5 0.00 0.00 0.00 58 1010.7
20260831081027 26 121 9.7 14.5 0.00 0.00 0.00 57 1010.6
20260831080525 26 130 9.7 19.3 0.00 0.00 0.00 57 1010.6
20260831080120 26 114 9.7 19.3 0.00 0.00 0.00 57 1010.5
20260831075528 26 111 9.7 19.3 0.00 0.00 0.00 56 1010.7
20260831075026 26 120 9.7 16.1 0.00 0.00 0.00 56 1010.7
20260831074547 27 113 9.7 16.1 0.00 0.00 0.00 56 1010.8
20260831074024 27 121 9.7 14.5 0.00 0.00 0.00 55 1010.8
20260831073524 27 110 9.7 19.3 0.00 0.00 0.00 55 1010.8
20260831073045 27 103 9.7 19.3 0.00 0.00 0.00 54 1010.8
20260831072527 27 125 11.3 19.3 0.00 0.00 0.00 54 1010.9
20260831072025 27 117 11.3 19.3 0.00 0.00 0.00 54 1010.8
20260831071548 27 137 8.0 19.3 0.00 0.00 0.00 54 1011.0
20260831071025 27 140 8.0 17.7 0.00 0.00 0.00 53 1010.9
20260831070524 27 144 8.0 17.7 0.00 0.00 0.00 53 1010.8
20260831070048 27 124 9.7 20.9 0.00 0.00 0.00 53 1010.9
20260831065526 28 123 11.3 20.9 0.00 0.00 0.00 52 1010.9
20260831065025 28 141 11.3 22.5 0.00 0.00 0.00 52 1010.9
20260831064544 28 113 11.3 22.5 0.00 0.00 0.00 52 1010.8
20260831064025 28 126 14.5 24.1 0.00 0.00 0.00 52 1010.8
20260831063525 28 118 14.5 24.1 0.00 0.00 0.00 52 1010.7
20260831063106 28 134 12.9 25.7 0.00 0.00 0.00 52 1010.6
20260831062524 28 141 14.5 27.4 0.00 0.00 0.00 51 1010.4
20260831062024 28 134 16.1 27.4 0.00 0.00 0.00 51 1010.3
20260831061547 28 113 14.5 25.7 0.00 0.00 0.00 51 1010.4
20260831061027 28 119 16.1 32.2 0.00 0.00 0.00 51 1010.4
20260831060524 28 113 16.1 32.2 0.00 0.00 0.00 50 1010.3
20260831060048 28 119 17.7 30.6 0.00 0.00 0.00 50 1010.3
20260831055524 28 126 16.1 30.6 0.00 0.00 0.00 50 1010.2
20260831055025 28 111 17.7 30.6 0.00 0.00 0.00 50 1010.2
20260831054543 28 128 16.1 32.2 0.00 0.00 0.00 50 1010.0
20260831054025 28 109 14.5 32.2 0.00 0.00 0.00 50 1009.8
20260831053525 28 140 12.9 27.4 0.00 0.00 0.00 50 1009.7
20260831053122 28 122 17.7 25.7 0.00 0.00 0.00 50 1009.6
20260831052524 28 113 14.5 25.7 0.00 0.00 0.00 50 1009.6
20260831052027 28 109 16.1 27.4 0.00 0.00 0.00 50 1009.6
20260831051545 28 113 17.7 27.4 0.00 0.00 0.00 50 1009.6
20260831051023 28 100 16.1 27.4 0.00 0.00 0.00 50 1009.6
20260831050523 28 110 16.1 25.7 0.00 0.00 0.00 49 1009.5
20260831050051 28 115 16.1 24.1 0.00 0.00 0.00 49 1009.5
20260831045525 28 107 17.7 24.1 0.00 0.00 0.00 49 1009.3
20260831045028 28 111 17.7 24.1 0.00 0.00 0.00 49 1009.3
20260831044636 28 114 17.7 24.1 0.00 0.00 0.00 49 1009.3
20260831044026 28 112 17.7 24.1 0.00 0.00 0.00 49 1009.3
20260831043524 28 104 16.1 25.7 0.00 0.00 0.00 49 1009.4
20260831043045 28 105 16.1 27.4 0.00 0.00 0.00 49 1009.3
20260831042524 28 103 16.1 27.4 0.00 0.00 0.00 49 1009.4
20260831042024 28 101 16.1 29.0 0.00 0.00 0.00 48 1009.5
20260831041557 29 94 19.3 29.0 0.00 0.00 0.00 48 1009.5
20260831041024 29 105 17.7 24.1 0.00 0.00 0.00 48 1009.6
20260831040525 29 115 16.1 24.1 0.00 0.00 0.00 48 1009.6
20260831040050 29 97 14.5 22.5 0.00 0.00 0.00 48 1009.6
20260831035524 29 99 14.5 22.5 0.00 0.00 0.00 48 1009.6
20260831035024 29 109 14.5 20.9 0.00 0.00 0.00 48 1009.6
20260831034545 29 119 12.9 19.3 0.00 0.00 0.00 48 1009.6
20260831034027 30 101 14.5 19.3 0.00 0.00 0.00 47 1009.5
20260831033525 30 104 12.9 19.3 0.00 0.00 0.00 47 1009.6
20260831033054 30 102 12.9 19.3 0.00 0.00 0.00 47 1009.6
20260831032525 30 108 11.3 20.9 0.00 0.00 0.00 47 1009.6
20260831032029 30 98 12.9 20.9 0.00 0.00 0.00 47 1009.6
20260831031549 30 108 14.5 22.5 0.00 0.00 0.00 47 1009.5
20260831031024 30 109 14.5 25.7 0.00 0.00 0.00 47 1009.6
20260831030527 30 103 14.5 25.7 0.00 0.00 0.00 46 1009.5
20260831030049 30 98 16.1 22.5 0.00 0.00 0.00 46 1009.4
20260831025525 30 96 14.5 19.3 0.00 0.00 0.00 46 1009.5
20260831025025 30 101 12.9 20.9 0.00 0.00 0.00 46 1009.4
20260831024545 31 105 12.9 22.5 0.00 0.00 0.00 45 1009.4
20260831024024 31 100 14.5 22.5 0.00 0.00 0.00 45 1009.4
20260831023522 31 108 14.5 20.9 0.00 0.00 0.00 45 1009.3
20260831023041 31 100 12.9 22.5 0.00 0.00 0.00 45 1009.3
20260831022525 31 108 14.5 22.5 0.00 0.00 0.00 45 1009.3
20260831022027 31 101 12.9 20.9 0.00 0.00 0.00 45 1009.2
20260831021547 31 109 14.5 20.9 0.00 0.00 0.00 44 1009.1
20260831021025 31 109 14.5 20.9 0.00 0.00 0.00 44 1009.1
20260831020524 31 104 14.5 20.9 0.00 0.00 0.00 44 1008.8
20260831020045 31 126 11.3 19.3 0.00 0.00 0.00 44 1008.8
20260831015525 31 113 12.9 20.9 0.00 0.00 0.00 43 1008.7
20260831015021 32 103 11.3 20.9 0.00 0.00 0.00 42 1008.6
20260831014550 32 107 9.7 17.7 0.00 0.00 0.00 42 1008.5
20260831014024 32 93 9.7 17.7 0.00 0.00 0.00 41 1008.6
20260831013526 32 103 12.9 17.7 0.00 0.00 0.00 40 1008.3
20260831013046 32 102 12.9 19.3 0.00 0.00 0.00 40 1008.3
20260831012524 33 98 12.9 19.3 0.00 0.00 0.00 39 1008.4
20260831012025 33 112 11.3 19.3 0.00 0.00 0.00 38 1008.3
20260831011554 33 102 12.9 19.3 0.00 0.00 0.00 37 1008.4
20260831011024 33 113 11.3 29.0 0.00 0.00 0.00 37 1008.2
20260831010525 34 108 12.9 29.0 0.00 0.00 0.00 37 1008.2
20260831010058 34 128 12.9 29.0 0.00 0.00 0.00 36 1008.2
20260831005525 35 131 11.3 20.9 0.00 0.00 0.00 36 1008.2
20260831005028 35 98 14.5 22.5 0.00 0.00 0.00 35 1008.1
20260831004548 35 123 14.5 29.0 0.00 0.00 0.00 35 1008.1
20260831004024 35 107 16.1 29.0 0.00 0.00 0.00 35 1008.1
20260831003527 36 118 14.5 25.7 0.00 0.00 0.00 35 1008.1
20260831003045 36 112 12.9 25.7 0.00 0.00 0.00 34 1008.1
20260831002524 36 99 12.9 25.7 0.00 0.00 0.00 34 1008.1
20260831002024 36 123 16.1 32.2 0.00 0.00 0.00 34 1008.1
20260831001544 37 132 19.3 33.8 0.00 0.00 0.00 33 1008.1
20260831001025 37 127 22.5 33.8 0.00 0.00 0.00 33 1008.2
20260831000525 37 129 20.9 33.8 0.00 0.00 0.00 33 1008.1
20260831000045 37 120 22.5 41.8 0.00 0.00 0.00 32 1008.1
20260830235524 37 113 22.5 41.8 0.00 0.00 0.00 32 1008.1
20260830235024 37 106 17.7 37.0 0.00 0.00 0.00 32 1008.0
20260830234550 37 107 22.5 38.6 0.00 0.00 0.00 32 1008.1
20260830234026 38 121 22.5 43.5 0.00 0.00 0.00 32 1008.0
20260830233525 38 116 24.1 43.5 0.00 0.00 0.00 31 1007.9
20260830233044 38 98 19.3 35.4 0.00 0.00 0.00 31 1007.8
20260830232526 38 100 16.1 33.8 0.00 0.00 0.00 32 1007.9
20260830232025 38 150 20.9 41.8 0.00 0.00 0.00 31 1008.0
20260830231543 38 125 24.1 41.8 0.00 0.00 0.00 32 1007.9
20260830231024 38 114 19.3 41.8 0.00 0.00 0.00 31 1007.9
20260830230524 38 123 25.7 41.8 0.00 0.00 0.00 31 1007.9
20260830230047 39 134 19.3 33.8 0.00 0.00 0.00 31 1007.7
20260830225525 39 113 19.3 38.6 0.00 0.00 0.00 31 1007.7
20260830225024 39 134 22.5 38.6 0.00 0.00 0.00 31 1007.6
20260830224548 39 126 22.5 37.0 0.00 0.00 0.00 31 1007.6
20260830224025 39 131 22.5 46.7 0.00 0.00 0.00 31 1007.6
20260830223524 39 119 25.7 46.7 0.00 0.00 0.00 30 1007.7
20260830223045 39 132 22.5 43.5 0.00 0.00 0.00 30 1007.7
20260830222526 40 145 29.0 43.5 0.00 0.00 0.00 30 1007.6
20260830222024 40 114 20.9 38.6 0.00 0.00 0.00 30 1007.6
20260830221541 40 109 20.9 41.8 0.00 0.00 0.00 31 1007.6
20260830221028 40 123 20.9 41.8 0.00 0.00 0.00 30 1007.7
20260830220524 40 109 22.5 33.8 0.00 0.00 0.00 29 1007.7
20260830220049 40 118 22.5 38.6 0.00 0.00 0.00 29 1007.7
20260830215524 40 121 24.1 38.6 0.00 0.00 0.00 29 1007.7
20260830215025 40 138 17.7 38.6 0.00 0.00 0.00 29 1007.8
20260830214545 40 123 25.7 38.6 0.00 0.00 0.00 30 1007.7
20260830214025 40 122 20.9 46.7 0.00 0.00 0.00 30 1007.6
20260830213528 40 134 27.4 46.7 0.00 0.00 0.00 30 1007.7
20260830213101 40 118 25.7 46.7 0.00 0.00 0.00 30 1007.6
20260830212525 40 113 32.2 48.3 0.00 0.00 0.00 30 1007.6
20260830212024 40 74 30.6 48.3 0.00 0.00 0.00 31 1007.7
20260830211550 40 136 27.4 46.7 0.00 0.00 0.00 31 1007.8
20260830211025 40 113 30.6 46.7 0.00 0.00 0.00 30 1007.8
20260830210523 40 117 25.7 46.7 0.00 0.00 0.00 30 1008.0
20260830210046 40 124 29.0 46.7 0.00 0.00 0.00 30 1008.0
20260830205529 41 137 24.1 40.2 0.00 0.00 0.00 30 1008.1
20260830205025 41 121 19.3 49.9 0.00 0.00 0.00 30 1008.1
20260830204543 40 105 27.4 49.9 0.00 0.00 0.00 30 1008.2
20260830204025 40 134 29.0 46.7 0.00 0.00 0.00 30 1008.2
20260830203524 40 125 25.7 53.1 0.00 0.00 0.00 30 1008.3
20260830203050 40 126 27.4 53.1 0.00 0.00 0.00 31 1008.4
20260830202526 40 104 20.9 43.5 0.00 0.00 0.00 31 1008.5
20260830202025 40 133 22.5 43.5 0.00 0.00 0.00 30 1008.4
20260830201546 40 119 22.5 43.5 0.00 0.00 0.00 30 1008.5
20260830201025 40 125 29.0 43.5 0.00 0.00 0.00 30 1008.6
20260830200524 40 140 27.4 40.2 0.00 0.00 0.00 30 1008.7
20260830200045 40 115 24.1 41.8 0.00 0.00 0.00 31 1008.6
20260830195524 40 130 20.9 49.9 0.00 0.00 0.00 31 1008.7
20260830195025 40 165 27.4 49.9 0.00 0.00 0.00 30 1008.8
20260830194544 40 117 24.1 48.3 0.00 0.00 0.00 31 1008.9
20260830194024 40 139 25.7 48.3 0.00 0.00 0.00 31 1008.9
20260830193525 40 105 25.7 48.3 0.00 0.00 0.00 31 1008.9
20260830193047 40 137 24.1 41.8 0.00 0.00 0.00 32 1009.1
20260830192524 40 134 20.9 45.1 0.00 0.00 0.00 31 1009.1
20260830192024 40 148 25.7 46.7 0.00 0.00 0.00 32 1009.2
20260830191546 40 111 29.0 46.7 0.00 0.00 0.00 32 1009.1
20260830191024 39 139 25.7 46.7 0.00 0.00 0.00 33 1009.1
20260830190524 39 137 24.1 54.7 0.00 0.00 0.00 33 1009.2
20260830190044 39 107 30.6 54.7 0.00 0.00 0.00 34 1009.1
20260830185525 39 139 24.1 54.7 0.00 0.00 0.00 34 1009.3
20260830185025 39 113 24.1 49.9 0.00 0.00 0.00 34 1009.3
20260830184550 39 138 27.4 53.1 0.00 0.00 0.00 33 1009.3
20260830184024 39 157 20.9 53.1 0.00 0.00 0.00 34 1009.4
20260830183526 39 132 20.9 43.5 0.00 0.00 0.00 35 1009.4
20260830183047 38 122 25.7 43.5 0.00 0.00 0.00 35 1009.4
20260830182532 38 146 24.1 48.3 0.00 0.00 0.00 35 1009.5
20260830182026 38 136 24.1 48.3 0.00 0.00 0.00 35 1009.4
20260830181546 38 148 32.2 48.3 0.00 0.00 0.00 36 1009.4
20260830181027 38 135 24.1 46.7 0.00 0.00 0.00 36 1009.6
20260830180525 38 127 32.2 49.9 0.00 0.00 0.00 36 1009.7
20260830180044 38 124 27.4 49.9 0.00 0.00 0.00 36 1009.7
20260830175524 38 142 27.4 45.1 0.00 0.00 0.00 37 1010.0
20260830175025 37 135 25.7 43.5 0.00 0.00 0.00 37 1010.0
20260830174547 37 128 20.9 43.5 0.00 0.00 0.00 38 1010.1
20260830174025 37 136 27.4 43.5 0.00 0.00 0.00 38 1010.1
20260830173527 37 134 25.7 43.5 0.00 0.00 0.00 38 1010.3
20260830173045 37 130 24.1 54.7 0.00 0.00 0.00 39 1010.4
20260830172524 36 147 27.4 54.7 0.00 0.00 0.00 39 1010.5
20260830172026 36 139 35.4 54.7 0.00 0.00 0.00 39 1010.6
20260830171546 36 132 24.1 45.1 0.00 0.00 0.00 39 1010.6
20260830171025 36 139 22.5 45.1 0.00 0.00 0.00 40 1010.6
20260830170524 36 131 29.0 45.1 0.00 0.00 0.00 40 1010.6
20260830170047 36 110 29.0 46.7 0.00 0.00 0.00 40 1010.6
20260830165525 36 126 20.9 46.7 0.00 0.00 0.00 41 1010.7
20260830165024 36 120 22.5 46.7 0.00 0.00 0.00 41 1010.9
20260830164549 35 142 22.5 45.1 0.00 0.00 0.00 42 1010.9
20260830164027 35 144 24.1 43.5 0.00 0.00 0.00 41 1011.0
20260830163526 35 115 17.7 43.5 0.00 0.00 0.00 42 1011.0
20260830163045 35 125 25.7 46.7 0.00 0.00 0.00 42 1010.8
20260830162523 34 141 20.9 46.7 0.00 0.00 0.00 43 1011.0
20260830162025 34 125 25.7 43.5 0.00 0.00 0.00 43 1011.0
20260830161557 34 134 24.1 43.5 0.00 0.00 0.00 43 1011.0
20260830161028 34 130 20.9 46.7 0.00 0.00 0.00 44 1011.0
20260830160526 33 149 29.0 46.7 0.00 0.00 0.00 44 1011.0
20260830160049 33 134 27.4 45.1 0.00 0.00 0.00 44 1011.0
20260830155525 33 127 29.0 43.5 0.00 0.00 0.00 43 1011.1
20260830155024 33 148 17.7 48.3 0.00 0.00 0.00 44 1010.9
20260830154547 33 129 20.9 48.3 0.00 0.00 0.00 45 1011.0
20260830154024 33 134 27.4 43.5 0.00 0.00 0.00 45 1011.0
20260830153524 33 144 24.1 43.5 0.00 0.00 0.00 45 1011.0
20260830153047 32 150 22.5 41.8 0.00 0.00 0.00 45 1010.9
20260830152525 32 152 17.7 43.5 0.00 0.00 0.00 46 1011.0
20260830152022 32 122 19.3 43.5 0.00 0.00 0.00 47 1011.0
20260830151549 32 150 27.4 41.8 0.00 0.00 0.00 47 1011.0
20260830151024 32 132 20.9 40.2 0.00 0.00 0.00 48 1011.0
20260830150527 31 128 17.7 40.2 0.00 0.00 0.00 48 1011.1
20260830150111 31 115 24.1 38.6 0.00 0.00 0.00 48 1011.1
20260830145524 31 100 24.1 38.6 0.00 0.00 0.00 49 1011.0
20260830145024 31 136 22.5 37.0 0.00 0.00 0.00 49 1011.0
20260830144545 30 134 24.1 37.0 0.00 0.00 0.00 50 1011.1
20260830144024 30 126 22.5 45.1 0.00 0.00 0.00 51 1011.1
20260830143525 30 117 19.3 45.1 0.00 0.00 0.00 52 1011.1
20260830143045 29 155 20.9 45.1 0.00 0.00 0.00 53 1011.1
20260830142524 29 152 19.3 33.8 0.00 0.00 0.00 54 1011.1
20260830142024 28 133 17.7 33.8 0.00 0.00 0.00 55 1011.1
20260830141546 28 126 19.3 33.8 0.00 0.00 0.00 55 1011.1
20260830141026 28 127 19.3 33.8 0.00 0.00 0.00 56 1011.1
20260830140525 27 124 16.1 30.6 0.00 0.00 0.00 57 1011.2
20260830140045 27 122 14.5 27.4 0.00 0.00 0.00 58 1011.2
20260830135527 27 126 16.1 27.4 0.00 0.00 0.00 59 1011.3
20260830135026 26 130 14.5 24.1 0.00 0.00 0.00 60 1011.3
20260830134547 26 137 14.5 25.7 0.00 0.00 0.00 61 1011.3
20260830134025 26 123 14.5 25.7 0.00 0.00 0.00 62 1011.3
20260830133524 25 123 14.5 22.5 0.00 0.00 0.00 63 1011.3
20260830133047 25 127 14.5 24.1 0.00 0.00 0.00 64 1011.2
20260830132526 25 105 12.9 24.1 0.00 0.00 0.00 65 1011.3
20260830132024 24 107 12.9 24.1 0.00 0.00 0.00 66 1011.4
20260830131546 24 110 12.9 24.1 0.00 0.00 0.00 66 1011.3
20260830131024 24 145 14.5 24.1 0.00 0.00 0.00 66 1011.3
20260830130528 23 113 14.5 20.9 0.00 0.00 0.00 66 1011.3
20260830130043 23 121 12.9 19.3 0.00 0.00 0.00 67 1011.3
20260830125525 23 107 14.5 20.9 0.00 0.00 0.00 67 1011.2
20260830125025 23 104 14.5 20.9 0.00 0.00 0.00 68 1011.3
20260830124546 23 90 12.9 22.5 0.00 0.00 0.00 68 1011.3
20260830124028 23 113 14.5 22.5 0.00 0.00 0.00 68 1011.3
20260830123524 23 110 14.5 22.5 0.00 0.00 0.00 68 1011.2
20260830123046 23 102 14.5 22.5 0.00 0.00 0.00 68 1011.2
20260830122525 22 105 14.5 22.5 0.00 0.00 0.00 68 1011.3
20260830122026 22 95 12.9 19.3 0.00 0.00 0.00 68 1011.2
20260830121554 23 113 11.3 19.3 0.00 0.00 0.00 68 1011.1
20260830121025 22 112 12.9 17.7 0.00 0.00 0.00 67 1011.2
20260830120525 23 112 11.3 17.7 0.00 0.00 0.00 67 1011.0
20260830120048 23 109 12.9 19.3 0.00 0.00 0.00 67 1011.2
20260830115525 23 108 11.3 19.3 0.00 0.00 0.00 67 1011.2
20260830115023 23 120 12.9 17.7 0.00 0.00 0.00 67 1011.2
20260830114603 23 111 11.3 17.7 0.00 0.00 0.00 67 1011.0
20260830114024 23 122 12.9 17.7 0.00 0.00 0.00 67 1011.1
20260830113524 23 105 9.7 19.3 0.00 0.00 0.00 67 1011.0
20260830113042 23 117 11.3 19.3 0.00 0.00 0.00 66 1010.9
20260830112523 23 117 11.3 19.3 0.00 0.00 0.00 66 1010.9
20260830112024 23 123 11.3 19.3 0.00 0.00 0.00 66 1010.8
20260830111547 23 105 12.9 19.3 0.00 0.00 0.00 66 1010.9
20260830111024 23 117 11.3 19.3 0.00 0.00 0.00 66 1010.9
20260830110524 23 96 12.9 16.1 0.00 0.00 0.00 66 1010.8
20260830110048 23 114 11.3 19.3 0.00 0.00 0.00 66 1011.0
20260830105527 23 109 9.7 19.3 0.00 0.00 0.00 66 1011.1
20260830105027 23 122 11.3 19.3 0.00 0.00 0.00 66 1011.0
20260830104545 23 101 11.3 20.9 0.00 0.00 0.00 66 1010.8
20260830104024 23 134 11.3 20.9 0.00 0.00 0.00 66 1010.9